Wind_Speed
38 40 42 42 40 40 37 35 33 32 31 31 31 31 31 30 29 28 28 28 28 27 27 27 26 26 25 24 24 24 24 25 25 26 26 25 26 27 27 27 28 29 30 30 30 31 33 34 35 35 35 34 33 32 33 34 34 35 38 40 39 37 37 38 39 37 36 34 32 33 33 33 34 34 35 36 37 38 38 39 39 39 39 38 37
37 39 42 43 43 40 36 35 33 32 31 30 30 31 31 30 29 28 28 27 27 27 27 27 26 26 25 24 23 23 24 25 25 26 26 25 26 26 26 26 27 29 30 30 31 32 33 34 35 36 35 35 35 35 35 35 34 35 37 39 42 43 40 38 40 39 38 37 36 36 35 34 33 32 32 34 35 36 37 39 40 41 41 40 39
36 37 39 42 44 39 36 35 33 32 31 30 30 31 31 30 29 28 27 27 27 27 27 26 26 26 26 25 24 23 24 25 25 25 26 25 25 26 26 26 27 28 29 30 31 31 33 34 34 36 36 36 36 37 37 37 37 37 37 38 39 43 44 41 41 40 39 40 41 40 38 37 36 34 33 33 35 35 36 37 39 41 42 42 41
35 35 36 41 41 37 36 35 32 32 31 30 30 31 30 30 29 27 27 27 27 26 26 26 26 26 26 25 24 24 24 24 24 25 25 25 24 25 25 25 26 27 28 29 31 31 32 33 34 35 36 36 37 38 38 38 39 39 39 38 37 40 44 44 44 43 40 40 41 41 41 41 39 37 36 35 36 35 35 36 38 40 41 42 43
33 32 34 39 38 35 36 34 32 32 32 31 30 31 30 29 29 27 27 27 27 26 26 26 25 25 26 25 25 25 24 24 24 24 25 25 25 25 25 25 26 27 27 28 29 31 31 32 33 34 35 36 37 38 39 39 39 40 40 39 37 37 41 46 47 46 43 42 41 39 39 42 42 42 42 39 38 37 36 36 37 39 40 41 43
30 30 33 37 34 33 35 33 32 32 32 31 30 30 30 29 28 28 27 26 26 26 26 26 25 25 25 25 25 25 25 25 25 25 25 25 25 25 25 26 26 26 27 28 29 30 30 32 33 33 34 36 37 38 39 40 40 41 41 40 38 36 39 45 47 47 46 47 47 42 38 39 42 45 45 43 42 41 39 38 38 38 39 41 42
29 29 32 35 33 32 33 32 32 32 32 31 30 30 29 28 28 28 26 26 25 25 25 25 24 24 24 24 25 25 25 25 26 26 26 26 27 27 27 27 27 27 27 28 29 29 30 31 32 33 34 35 36 37 38 40 41 41 42 41 40 38 38 41 44 47 49 49 50 48 44 43 42 45 47 45 43 44 42 41 40 39 38 39 41
29 28 31 33 33 32 32 32 32 32 31 31 30 30 29 28 28 28 27 25 25 24 24 24 24 24 24 24 25 25 25 26 26 27 27 28 28 28 29 29 29 29 29 29 29 30 30 31 32 32 33 34 35 36 38 40 41 42 43 42 42 42 40 40 42 45 49 51 53 53 51 48 44 44 49 49 46 46 46 44 42 42 41 40 40
29 28 30 33 33 32 32 32 32 32 31 30 30 30 28 28 28 28 27 25 24 24 24 24 24 24 24 25 25 25 26 26 27 27 28 28 29 29 30 30 30 31 31 31 30 30 30 31 32 33 33 34 35 36 38 39 41 42 43 43 44 44 44 43 43 45 47 50 54 55 56 55 48 43 45 49 50 49 49 48 45 45 44 42 42
29 29 30 32 34 33 32 32 31 31 31 30 30 29 28 28 28 28 26 25 24 24 24 25 25 25 25 26 26 26 27 27 27 27 28 28 29 29 30 30 31 31 31 31 31 32 31 31 32 33 34 34 35 36 37 39 41 42 44 45 45 45 46 46 46 46 47 49 51 53 55 58 56 51 45 45 49 52 51 49 47 47 47 47 46
30 29 30 32 33 33 32 32 31 31 30 30 30 29 28 28 27 28 26 25 25 25 25 25 26 26 26 27 27 26 26 27 27 27 28 28 28 28 29 29 30 30 31 31 32 32 32 32 33 33 34 35 35 37 38 39 41 42 44 46 46 47 47 48 49 48 48 49 50 51 51 52 55 55 51 46 46 50 50 48 46 46 46 49 51
29 29 31 32 32 32 32 32 32 31 29 30 29 28 28 27 27 27 27 25 25 26 26 25 26 26 26 27 27 27 27 27 27 27 28 28 29 29 29 29 29 30 30 30 31 32 33 33 33 34 34 35 36 37 38 39 41 43 44 46 48 48 49 50 51 51 50 50 51 52 51 51 52 53 52 50 47 48 49 48 45 42 37 39 46
29 30 31 33 32 31 32 33 33 31 29 30 30 28 28 27 27 27 28 27 26 26 27 26 26 26 27 27 27 27 27 27 28 28 28 29 30 30 30 30 30 30 30 30 31 31 32 33 34 34 35 36 37 38 39 40 41 43 44 47 48 49 50 51 52 53 53 54 54 54 54 54 54 53 52 52 51 50 50 49 48 44 37 32 35
30 32 33 35 33 30 32 34 33 30 29 30 30 29 29 28 29 29 29 28 27 27 27 27 27 27 27 28 28 28 28 28 29 29 29 30 31 32 33 33 33 33 32 32 33 33 33 34 34 35 36 36 37 38 40 41 42 43 44 46 48 50 51 52 53 54 54 56 57 57 58 57 56 56 55 54 53 53 52 51 53 52 46 40 37
33 33 34 36 37 33 32 35 35 32 31 31 30 30 30 30 30 31 31 29 28 28 28 29 29 28 29 29 29 29 29 30 30 30 31 32 33 33 34 35 36 36 36 36 36 36 36 36 36 36 37 37 38 39 40 42 43 44 45 46 48 50 52 53 54 54 55 57 58 58 59 59 59 59 59 57 55 55 54 53 55 57 54 50 47
33 34 32 33 38 38 35 35 37 35 33 33 31 31 32 32 32 32 32 31 29 29 31 31 31 30 30 31 31 31 31 32 32 32 33 34 34 35 36 37 37 38 39 39 40 40 40 40 40 39 39 39 39 40 41 42 44 45 46 47 48 49 51 52 54 56 56 57 58 58 59 59 59 59 60 59 57 56 56 55 54 56 57 56 54
28 31 31 30 35 39 36 35 36 37 36 36 35 34 35 35 35 34 34 33 32 32 33 33 33 32 32 33 33 33 33 34 34 34 35 36 36 37 38 38 39 39 40 41 42 42 43 43 43 43 42 41 40 40 41 43 44 46 47 48 49 49 51 52 53 56 57 57 58 59 59 58 59 59 60 60 59 58 58 58 56 55 56 57 57
25 27 29 29 32 36 37 34 34 36 37 39 39 38 38 38 37 37 37 37 35 35 36 36 36 35 35 35 35 35 35 36 36 36 37 38 39 39 40 40 41 41 41 42 43 44 45 45 45 45 44 44 43 42 41 42 44 46 47 49 49 50 51 52 53 55 56 57 58 59 59 59 59 59 60 60 61 60 59 59 59 58 58 59 57
26 26 27 28 30 33 36 36 34 35 37 40 41 40 39 40 40 39 39 39 38 38 39 39 39 38 37 37 37 37 38 38 39 40 40 40 41 41 42 42 43 43 43 44 45 45 46 46 47 47 46 45 44 44 43 43 43 45 47 48 49 50 51 52 54 55 56 57 58 58 59 59 60 60 60 61 61 62 61 61 61 61 61 61 60
25 25 26 29 31 33 35 36 34 34 36 37 38 39 39 40 41 41 40 41 40 39 40 41 41 40 39 39 39 39 39 40 41 42 42 42 43 43 44 44 44 45 45 46 46 47 47 47 47 47 46 45 45 45 45 44 44 44 46 47 48 49 51 52 53 55 56 57 58 59 58 59 60 60 61 61 62 62 62 62 63 63 63 63 63
25 26 28 31 33 34 35 35 33 33 36 37 36 36 38 40 40 39 40 41 40 39 41 42 42 42 41 40 41 40 41 41 42 43 44 44 45 45 46 46 46 47 47 47 47 47 47 47 48 48 47 46 45 46 46 46 45 45 46 46 47 49 50 51 52 54 56 57 57 58 59 59 59 60 61 61 62 63 63 62 63 63 63 63 64
29 30 32 33 34 36 37 37 35 35 38 38 35 35 38 39 38 38 39 40 40 39 41 43 43 42 42 42 41 41 42 42 43 44 45 46 47 48 48 48 48 49 49 48 48 48 48 47 48 48 48 48 47 46 46 47 47 47 47 47 47 48 49 50 50 52 54 57 58 58 59 60 60 60 60 61 62 63 63 62 62 62 62 62 64
31 31 31 33 36 37 38 38 36 36 38 36 35 37 38 37 37 38 39 40 39 39 40 41 41 41 41 41 42 42 43 43 44 45 46 48 49 50 50 49 49 49 49 49 49 48 48 48 48 48 49 49 49 48 47 47 48 48 48 48 48 48 49 50 50 50 51 54 57 58 59 59 61 61 60 60 61 62 63 63 61 61 62 62 62
29 29 28 31 35 36 37 39 37 38 39 36 35 38 38 37 37 38 39 40 39 38 38 39 40 40 40 40 42 42 43 44 45 46 47 48 49 50 49 49 48 48 48 48 48 48 48 48 48 48 49 50 50 50 50 49 49 49 49 49 49 49 49 50 50 51 51 52 54 57 58 58 60 61 61 60 60 61 62 62 62 61 61 61 61
32 31 29 30 33 34 36 40 41 42 43 38 35 38 41 40 39 40 40 39 39 38 38 39 40 39 39 40 41 42 43 44 45 46 47 48 48 48 48 48 47 47 47 47 47 47 48 48 48 48 49 50 50 51 51 51 50 50 51 50 50 51 50 50 50 51 52 52 53 54 56 57 58 60 61 61 60 59 61 61 62 61 61 61 61
37 38 38 36 36 35 36 39 42 44 46 42 36 38 42 41 39 40 40 38 38 38 38 39 40 39 39 39 40 41 42 43 43 44 45 46 46 47 47 47 48 48 48 47 47 47 47 48 48 48 49 50 50 51 52 52 52 52 52 52 52 52 52 52 52 51 51 52 53 53 54 55 56 57 58 60 59 59 59 60 61 62 62 62 61
43 46 46 41 37 35 35 38 40 40 43 44 41 40 41 40 39 39 39 39 38 38 38 39 39 39 38 38 38 39 40 40 41 41 42 43 44 45 46 47 48 48 48 48 48 47 47 48 48 48 49 50 50 51 52 53 53 53 53 54 54 53 53 53 53 53 53 52 52 53 53 53 54 55 56 57 58 58 58 59 59 60 62 62 62
50 49 46 40 38 38 37 38 40 41 42 45 47 45 42 41 41 39 40 40 39 37 37 38 37 37 36 35 36 36 36 37 38 39 40 41 42 44 45 47 48 48 48 48 48 48 48 48 48 49 49 50 51 51 52 53 54 55 55 55 55 55 55 55 54 55 55 54 53 53 53 53 53 53 54 55 57 57 57 58 58 59 60 61 62
54 51 47 45 47 49 46 43 44 45 44 44 48 48 45 44 43 40 40 41 39 38 37 37 36 35 34 34 34 34 35 36 37 39 40 41 42 44 46 47 48 48 48 48 48 47 48 48 49 49 49 50 51 51 52 53 54 55 56 56 56 56 56 56 56 56 56 56 55 54 54 53 53 53 53 54 55 56 57 57 58 58 59 60 61
57 55 53 52 53 53 50 47 47 46 44 44 48 51 50 49 45 41 41 41 39 38 38 37 36 35 34 35 35 34 34 35 37 38 39 40 42 43 44 46 46 47 47 47 47 47 48 48 49 49 49 50 50 51 52 53 54 55 56 57 57 57 57 58 57 57 57 57 57 57 55 55 54 54 54 54 55 56 56 56 57 58 58 59 59
61 60 59 57 57 56 52 49 47 45 45 47 49 51 53 51 46 42 41 40 39 39 38 38 37 36 35 35 35 34 34 35 36 38 39 40 42 43 44 45 45 45 46 46 47 47 48 49 49 49 50 50 50 51 51 53 54 54 55 57 58 58 58 58 58 58 58 58 58 58 58 57 55 55 54 54 55 55 55 56 57 58 58 59 59
62 63 61 58 59 60 57 55 52 48 47 46 47 50 51 48 44 42 40 38 38 38 39 38 38 37 36 35 35 35 35 36 37 39 40 41 43 44 45 45 45 45 46 46 47 48 49 49 50 51 51 51 51 51 52 53 54 55 55 57 58 58 59 59 59 59 59 59 59 59 60 59 58 56 55 55 55 56 56 56 57 58 58 59 60
58 60 60 58 57 57 57 59 57 53 49 42 41 47 50 46 43 40 38 37 37 38 39 38 38 37 36 36 36 36 36 38 39 41 42 43 44 46 46 46 46 46 46 46 47 49 50 50 51 52 52 52 52 52 53 54 54 55 56 57 57 58 59 59 59 60 60 60 60 60 60 60 60 59 58 57 56 56 57 57 58 58 58 59 60
52 54 56 58 58 56 56 60 62 59 52 42 38 41 44 43 41 39 37 37 37 37 38 38 37 38 37 36 36 37 38 40 41 43 44 45 46 47 47 47 47 47 47 48 49 50 51 51 52 52 53 53 54 54 54 55 55 56 57 57 57 57 58 58 59 60 60 60 60 61 61 60 61 61 60 59 58 57 58 59 59 59 58 58 59
49 50 53 56 58 55 52 56 64 66 60 51 45 42 39 38 38 38 37 37 37 37 37 37 37 38 38 38 38 39 40 42 43 44 46 46 47 48 49 49 49 48 49 50 51 52 52 52 53 53 53 54 54 55 56 56 56 56 57 58 58 58 58 58 59 60 60 60 60 61 61 61 61 61 61 61 61 60 60 60 60 60 60 59 59
49 49 51 55 58 57 52 51 58 66 67 63 58 53 46 39 37 38 37 37 37 38 37 37 38 38 38 39 40 41 43 44 45 46 47 48 48 49 49 49 48 49 50 51 53 53 53 53 53 54 54 54 54 55 56 56 57 57 58 59 59 59 59 59 59 60 61 61 61 61 61 61 61 61 61 61 63 63 62 61 60 60 61 59 58
52 51 50 52 56 59 57 54 56 61 63 62 63 61 53 43 38 38 38 37 38 38 37 37 39 39 39 40 42 43 44 45 46 47 48 48 48 49 50 49 49 49 50 52 53 53 53 54 53 54 54 54 54 54 54 55 56 57 58 59 60 61 61 61 61 61 62 62 62 62 63 62 61 61 60 61 62 64 65 62 60 61 62 60 59
51 50 48 50 53 55 55 56 57 57 53 52 56 59 53 45 41 39 38 37 38 38 38 38 39 38 39 42 43 45 46 46 47 47 48 49 49 49 50 50 50 50 51 52 52 53 53 52 52 52 52 53 53 53 53 54 55 57 58 59 60 62 62 63 63 63 63 64 64 64 64 64 63 61 61 61 61 63 65 64 61 61 62 61 59
46 46 45 46 46 46 48 51 53 53 50 48 50 51 48 45 43 41 39 38 38 38 38 39 38 39 41 43 44 45 46 47 47 48 48 49 50 50 50 50 50 51 51 52 52 51 51 50 50 51 52 53 53 53 54 55 55 57 58 59 61 62 62 63 64 64 65 65 65 65 65 65 64 63 63 62 62 63 64 65 63 61 61 61 60
41 42 41 40 39 41 45 47 46 48 53 52 47 44 45 45 43 41 39 38 38 38 38 38 38 40 43 44 45 46 47 47 47 48 49 50 50 51 51 50 50 50 51 50 49 49 49 50 51 52 53 54 55 54 55 55 55 55 56 57 59 60 60 61 62 62 63 63 64 65 65 65 65 64 64 63 63 63 64 65 64 61 60 61 60
38 38 37 37 37 39 42 43 41 44 49 49 45 43 45 46 44 42 41 39 38 37 36 37 39 42 43 44 45 46 46 46 47 48 49 50 50 51 51 50 49 49 49 48 48 49 50 51 52 53 53 53 53 53 53 52 53 53 53 55 56 56 57 58 59 59 60 60 60 61 62 64 64 65 64 63 63 62 63 64 64 61 59 60 60
33 31 33 36 37 38 39 39 38 39 43 45 47 49 48 46 44 42 41 39 37 36 36 38 40 42 43 44 45 45 45 46 47 48 49 49 50 50 49 48 47 47 47 47 49 50 50 50 50 49 49 49 49 50 50 51 52 52 53 55 56 56 57 57 57 57 56 56 57 57 58 61 62 62 62 62 61 61 62 63 61 59 59 59 59
31 28 28 32 34 35 36 35 34 36 40 44 48 48 45 42 40 39 39 37 34 33 35 38 40 42 43 44 44 43 44 46 47 48 48 48 48 48 47 46 45 45 46 47 48 48 47 46 45 45 46 47 48 49 50 51 51 50 50 51 51 51 52 53 53 52 51 51 52 53 55 57 57 58 59 59 59 60 61 60 59 58 59 59 59
33 29 26 31 36 36 35 34 36 38 38 39 41 40 37 35 35 35 36 34 31 32 35 38 40 41 42 42 42 43 45 47 47 47 47 46 46 45 44 43 44 45 46 46 45 44 43 42 42 43 45 47 49 50 49 47 44 42 41 41 42 44 46 48 48 47 46 45 46 48 50 51 52 55 57 57 58 59 58 58 58 59 59 59 58
32 28 27 35 39 37 35 37 40 41 39 35 34 34 33 32 32 32 32 30 30 33 36 37 39 40 41 42 43 44 45 46 46 46 45 44 43 42 41 42 43 45 45 43 42 41 41 41 42 43 45 47 48 46 41 36 35 35 35 36 38 41 43 45 45 43 40 39 40 43 45 46 48 51 53 55 56 57 57 58 59 59 58 58 57
31 29 31 37 38 37 36 36 38 40 37 31 30 30 29 28 29 28 27 28 30 33 35 36 38 40 41 43 43 43 44 45 45 45 44 42 41 40 40 41 42 43 42 40 39 38 39 41 43 45 45 44 40 35 31 29 30 31 31 32 34 36 38 40 40 36 34 33 35 37 39 41 43 46 49 52 54 55 57 58 58 57 57 56 54
29 31 35 38 37 34 31 30 32 33 30 27 25 24 24 24 25 25 26 28 31 33 35 37 39 41 42 42 42 42 42 43 43 43 42 40 39 39 40 41 41 40 38 37 36 37 39 41 43 43 41 35 29 27 27 27 28 27 27 28 29 30 32 33 32 30 29 29 30 31 33 36 38 41 44 47 50 52 55 56 55 55 55 53 52
26 28 32 33 30 27 25 24 25 23 21 20 19 20 22 23 23 25 27 30 32 33 36 38 40 40 40 40 40 40 40 41 41 40 39 38 37 38 39 40 39 38 36 34 35 37 39 40 41 38 32 27 25 26 26 26 26 25 25 25 25 26 26 26 26 26 26 26 27 29 31 33 35 38 40 43 46 49 51 52 52 53 52 51 50
22 22 24 24 22 21 19 18 16 14 15 16 17 20 22 23 23 26 28 30 32 35 37 37 37 37 37 37 38 38 39 39 38 38 37 36 36 37 38 38 37 36 34 34 35 37 38 38 36 32 27 25 25 26 26 25 25 24 23 24 24 23 22 21 23 24 24 24 24 26 28 30 32 36 38 41 44 46 47 49 49 50 49 49 49
18 18 17 16 16 14 13 12 11 12 14 16 18 20 22 23 24 27 29 32 34 35 35 34 33 34 36 36 36 37 37 37 35 35 34 34 35 36 36 36 35 34 34 34 36 37 36 34 30 27 27 26 25 24 23 23 24 23 21 22 23 20 17 18 21 24 24 23 23 24 25 27 29 32 36 39 42 44 46 47 48 49 49 49 49
14 14 13 12 11 10 10 10 11 12 14 16 18 20 22 24 26 28 30 32 33 32 31 31 32 34 34 35 36 36 35 33 32 32 32 33 34 34 34 33 33 33 33 34 35 35 35 33 27 25 26 26 22 20 20 21 22 22 20 20 20 18 15 14 18 21 24 25 24 23 24 26 27 29 32 35 38 42 45 47 49 50 51 50 50
Wind_Direction
271 272 272 271 271 271 273 274 274 275 274 273 272 271 269 268 267 267 267 267 267 267 267 267 266 264 262 259 257 257 255 254 255 255 255 256 254 253 253 252 253 252 250 249 248 249 251 251 252 252 252 254 254 252 252 254 252 246 241 240 241 240 235 230 228 228 229 231 232 234 236 235 237 237 237 240 243 244 246 246 245 246 246 246 247
268 271 274 274 272 271 273 274 273 273 272 271 271 270 269 268 267 267 266 266 265 265 265 264 264 264 262 259 256 255 255 254 253 254 253 253 253 252 251 252 253 254 253 252 250 249 250 251 252 253 252 252 253 252 253 255 256 251 247 246 243 240 238 234 231 231 231 231 232 233 236 237 237 238 237 238 241 241 243 245 246 246 247 248 249
267 269 272 274 273 273 274 274 274 273 271 271 271 270 269 269 268 267 266 265 263 262 261 261 261 261 261 259 256 253 253 253 252 253 253 252 253 253 252 251 251 252 254 255 256 254 253 252 252 253 254 254 253 252 252 252 254 254 252 252 247 241 238 237 234 233 234 234 234 234 236 237 237 237 238 239 240 240 240 243 246 247 247 248 249
267 268 269 270 273 275 275 273 274 273 272 272 271 270 269 269 269 267 265 263 261 259 257 257 257 257 258 258 257 254 252 252 252 252 253 252 252 253 252 251 251 251 253 255 257 258 257 257 256 255 254 255 255 254 253 252 252 252 252 252 251 243 238 238 237 235 236 237 237 237 237 238 239 238 238 239 241 242 242 243 245 247 247 247 248
264 266 267 269 273 275 273 273 274 274 273 272 271 271 270 269 268 266 264 261 258 256 255 254 253 253 254 255 256 255 254 252 252 252 253 253 252 252 252 252 252 252 253 254 255 257 259 259 258 257 256 255 256 256 256 255 253 252 252 251 252 247 238 237 238 238 237 237 239 240 238 239 240 240 239 239 241 244 244 244 246 246 247 247 247
263 264 266 269 273 274 274 275 275 275 274 272 271 271 269 267 266 264 262 259 257 255 254 254 253 252 252 253 253 254 254 253 253 253 254 255 254 254 254 253 252 252 253 254 254 255 257 259 259 259 258 257 256 256 255 256 255 254 253 251 251 249 241 237 238 239 239 238 241 244 244 242 241 241 241 239 241 244 245 245 246 247 248 248 249
262 263 266 269 271 272 274 275 274 274 274 273 272 269 267 265 264 262 260 258 257 256 256 256 256 255 253 254 253 253 253 252 252 253 253 255 255 256 256 255 254 253 253 253 254 255 255 256 257 258 258 258 257 257 255 255 255 255 255 253 251 250 245 240 239 240 240 240 242 244 247 247 245 243 244 243 241 243 244 245 247 248 249 250 251
262 262 265 268 269 270 271 272 272 272 272 272 270 268 267 265 263 261 260 259 259 259 259 259 259 259 257 256 255 254 252 251 251 251 250 252 253 255 257 258 258 258 257 256 255 256 255 256 257 256 257 257 257 258 257 256 255 254 254 253 251 249 247 243 242 242 243 243 243 243 245 248 248 246 246 247 247 246 246 246 247 248 249 251 253
262 262 264 267 268 269 270 270 271 271 270 270 269 268 267 265 263 261 261 260 261 261 261 261 260 259 258 256 255 254 253 252 251 250 249 249 250 252 254 256 258 260 260 260 259 258 257 257 257 257 257 256 256 256 257 257 256 255 254 253 252 250 248 245 244 245 245 245 245 243 243 245 247 247 246 245 247 249 248 247 246 248 250 251 251
263 262 264 267 268 268 269 270 271 271 270 269 268 268 267 266 264 262 261 261 261 260 259 260 259 258 257 256 255 254 253 253 252 251 251 250 250 250 251 253 255 258 260 261 261 261 260 259 258 259 258 258 257 256 256 256 256 256 255 254 253 251 250 248 247 247 246 247 247 246 245 245 247 249 250 246 243 245 247 247 247 248 251 252 251
267 265 264 266 268 269 270 270 270 270 270 270 269 269 267 265 264 263 261 260 259 259 258 259 259 259 259 259 258 255 254 252 251 250 250 250 250 250 251 252 253 255 258 260 262 262 262 261 260 260 260 260 259 258 257 256 255 255 255 255 254 252 251 250 249 248 247 247 248 249 247 247 248 249 250 248 244 244 246 247 249 249 253 254 251
273 271 270 269 269 271 271 271 270 269 270 271 270 269 268 266 265 263 261 259 258 259 259 259 260 260 261 260 260 259 257 255 253 251 251 250 250 250 250 251 253 254 256 258 260 262 263 263 263 262 261 261 260 260 259 257 256 255 255 254 254 253 252 250 249 248 247 247 247 248 248 247 248 249 249 248 248 247 246 245 246 247 252 255 252
278 277 276 273 271 273 274 273 271 269 270 271 270 270 269 268 266 264 262 261 259 260 261 260 259 259 260 260 261 262 261 261 260 258 257 257 256 256 254 254 255 256 257 258 260 262 264 265 266 265 264 263 262 261 260 259 257 256 255 254 253 253 252 251 250 248 247 246 245 246 247 247 248 250 250 250 251 252 250 245 242 245 249 253 254
279 280 281 278 276 276 278 277 273 270 269 269 270 269 269 268 266 265 264 264 263 263 264 263 262 261 261 262 262 264 265 265 265 265 264 264 263 263 263 262 261 261 262 264 265 266 267 268 268 268 267 266 264 263 261 260 259 256 255 254 254 253 252 251 250 249 248 247 246 244 246 247 248 250 251 252 253 253 253 248 242 244 249 250 253
281 280 281 281 280 279 280 280 277 274 271 269 269 269 269 269 268 268 266 266 266 266 266 266 265 265 265 265 266 267 268 269 269 269 270 269 269 269 269 269 269 269 269 270 271 272 272 272 272 271 269 268 265 264 262 261 260 258 256 255 254 253 253 252 251 250 249 248 248 246 245 246 247 249 251 252 253 253 254 253 245 243 247 249 250
285 284 282 282 282 281 279 279 279 278 275 271 270 271 271 270 269 269 268 268 268 268 268 268 268 268 268 269 269 270 271 272 272 272 272 272 272 272 273 273 274 275 275 276 276 277 277 276 276 274 272 270 267 264 262 261 260 260 258 256 254 253 253 252 252 251 250 249 249 248 247 247 247 248 249 250 251 251 253 254 250 245 247 250 250
281 285 285 283 282 282 280 278 278 279 275 271 271 272 272 270 269 270 270 270 270 270 271 271 270 271 271 271 272 272 272 273 273 273 273 273 273 273 273 274 275 276 277 278 279 279 280 279 279 277 276 273 269 265 262 261 260 259 259 258 256 254 253 252 252 252 251 250 249 249 249 248 248 248 248 249 249 249 250 252 252 251 250 252 252
281 284 289 286 284 285 284 280 276 275 275 273 273 273 273 270 269 271 271 271 271 272 273 272 272 272 272 272 273 273 274 274 274 274 274 274 274 274 274 274 275 276 278 278 279 280 280 280 280 279 277 274 271 267 263 260 259 258 258 258 258 256 254 252 252 251 251 251 250 249 249 249 250 249 249 249 248 248 248 249 251 252 252 254 254
285 288 295 294 293 294 292 285 277 274 276 275 274 275 275 273 273 274 273 273 273 273 273 273 273 273 273 274 275 275 275 276 276 276 276 276 276 275 276 276 276 278 278 279 280 280 280 280 279 278 277 274 272 269 265 261 259 257 257 258 258 257 256 254 252 251 251 251 251 250 249 249 250 250 250 250 250 249 248 248 249 250 252 253 254
282 285 293 297 299 299 296 291 283 279 279 276 274 275 275 275 276 276 275 275 275 274 273 272 272 273 274 274 275 276 275 275 276 276 276 276 276 276 277 277 278 278 279 279 280 279 279 279 278 277 275 273 270 268 266 263 260 258 257 257 257 257 256 255 254 253 251 251 251 251 250 248 248 249 250 251 251 251 249 248 249 249 251 253 253
273 279 287 292 294 294 293 292 288 285 282 276 276 277 275 276 277 277 278 277 276 274 273 273 273 273 274 274 274 275 275 275 276 276 276 276 277 277 277 277 278 278 278 278 278 278 278 278 277 276 274 272 269 267 265 263 261 259 257 257 258 258 257 255 254 253 253 252 251 251 252 251 249 248 249 250 251 251 251 250 250 249 250 252 253
270 277 283 285 287 287 287 286 285 285 282 278 279 279 276 276 276 277 278 277 275 275 274 274 275 274 274 274 274 274 275 275 275 276 276 277 277 277 277 277 277 277 277 277 277 277 276 276 275 275 273 271 269 266 264 262 261 259 257 257 257 257 258 257 255 253 253 253 252 251 251 252 251 249 248 248 249 251 251 250 250 251 250 251 252
273 276 278 279 281 282 281 280 280 279 277 276 278 279 276 275 275 276 277 275 274 275 275 275 275 275 275 274 274 274 274 274 275 275 275 275 276 276 276 276 276 276 276 276 276 276 275 274 273 273 272 271 269 266 264 262 260 259 258 257 256 256 257 257 257 255 252 252 252 251 250 250 251 251 249 248 247 248 250 250 250 251 251 250 250
267 269 271 274 277 276 274 275 276 274 273 272 272 274 275 276 276 276 274 273 274 273 273 274 274 275 275 274 274 274 274 274 273 274 274 274 274 274 274 275 275 275 275 274 274 274 273 273 272 271 271 270 269 268 265 263 261 259 258 257 256 255 255 255 256 256 255 253 252 251 251 250 250 251 251 249 247 247 248 250 250 250 251 251 250
263 264 265 267 269 271 272 274 273 273 275 273 268 269 271 273 274 275 272 271 272 272 272 273 273 274 274 275 275 274 274 274 273 273 273 273 273 273 273 274 274 273 273 273 273 272 272 272 271 271 270 269 269 268 266 264 262 260 259 258 257 255 255 254 254 255 255 254 253 252 251 250 249 249 250 250 249 247 246 247 249 250 250 251 251
264 265 268 267 265 266 269 272 274 273 272 271 266 264 267 269 270 271 271 269 270 271 273 273 273 274 275 275 275 274 274 274 273 274 274 274 274 274 274 273 273 272 272 272 272 272 272 271 271 270 270 269 268 267 267 265 263 261 260 259 258 256 255 255 254 254 254 254 254 253 251 250 250 249 249 249 248 248 246 245 246 248 249 249 251
265 265 266 266 262 259 261 267 270 269 267 268 267 263 262 266 267 268 269 270 271 271 271 272 274 275 275 274 274 275 276 276 276 276 276 276 276 275 274 273 273 272 272 272 272 272 272 271 271 270 269 268 268 267 266 266 264 263 261 259 258 257 256 255 255 254 254 253 253 254 253 251 250 249 249 248 248 247 247 246 244 245 247 248 249
262 263 261 260 259 260 264 266 265 263 263 267 268 263 259 261 263 265 267 269 270 270 269 271 274 274 274 274 274 275 277 279 280 280 279 278 277 275 274 273 273 273 273 273 272 272 272 271 270 269 268 267 267 267 266 266 265 264 262 260 258 257 256 255 254 254 254 253 253 253 253 252 250 249 248 248 248 247 247 247 245 244 245 246 248
258 258 257 257 258 262 267 267 261 261 264 265 264 262 260 260 261 264 266 268 268 268 268 270 272 273 274 274 274 276 277 280 282 282 281 279 278 276 275 274 274 274 274 273 273 273 272 271 270 269 268 267 267 266 266 265 264 264 263 261 259 257 256 255 254 253 254 254 253 252 252 252 251 249 248 247 248 248 247 247 247 246 244 244 246
256 253 253 254 257 260 264 261 255 254 259 260 259 260 261 261 262 263 264 265 265 265 267 269 270 271 273 275 277 278 280 283 285 285 284 282 280 278 277 276 275 275 275 275 274 274 273 272 271 270 269 268 268 267 266 265 265 264 263 262 261 259 257 255 254 253 253 253 253 252 252 251 251 250 249 247 246 247 247 247 247 247 246 245 244
254 253 251 252 255 258 258 256 251 247 248 253 258 260 261 261 262 263 262 261 262 262 264 267 268 269 272 275 278 280 284 288 288 288 287 284 282 280 278 277 277 276 276 276 275 275 274 273 273 272 271 270 269 268 268 267 266 265 264 263 262 261 259 257 255 253 252 252 252 252 252 252 251 250 249 248 246 246 246 246 246 246 247 246 245
250 251 251 251 253 254 253 252 250 245 243 249 256 258 258 257 258 260 259 257 256 258 262 265 266 268 271 275 278 281 285 288 289 289 288 286 283 281 280 279 278 278 278 278 278 277 276 275 274 274 273 271 270 269 269 268 267 266 264 263 263 262 261 259 257 255 253 251 251 251 251 252 251 250 249 248 247 246 245 244 245 245 245 246 246
249 249 250 250 250 250 248 248 248 246 245 249 254 255 254 254 254 255 254 253 253 255 260 264 265 268 271 274 277 280 284 287 288 289 287 286 284 283 281 280 279 279 279 279 279 278 277 276 275 274 273 272 271 270 269 268 267 266 265 264 263 263 262 261 259 257 255 253 251 250 250 251 251 251 250 249 247 247 245 244 244 244 244 244 245
251 250 249 247 248 247 245 245 245 245 245 248 253 255 252 251 251 250 251 251 252 254 259 262 264 267 271 274 276 280 283 286 289 289 288 287 285 284 284 283 282 281 281 280 280 279 277 277 276 275 274 273 272 271 270 269 268 268 267 265 264 263 262 262 261 259 257 255 253 251 249 249 250 250 250 249 248 247 245 244 243 243 244 243 243
251 249 247 246 246 245 244 243 243 242 242 245 252 256 254 250 249 249 250 251 252 255 258 260 263 268 272 274 276 280 283 286 289 290 290 289 287 286 285 285 284 284 283 282 281 280 278 278 277 276 275 274 273 272 271 270 269 269 268 267 266 264 263 262 261 260 259 257 255 252 250 248 248 248 248 249 249 247 246 244 243 243 243 243 242
251 248 246 246 244 242 243 244 243 242 242 244 250 254 254 252 251 249 249 252 254 256 258 260 265 270 272 274 277 280 283 286 288 290 290 290 289 288 287 287 286 286 285 284 282 281 280 279 278 277 276 275 274 273 272 271 270 269 268 267 266 265 263 262 261 261 260 258 256 254 252 249 247 246 246 247 248 248 247 245 243 242 242 242 241
253 250 248 246 243 241 241 243 245 244 243 246 250 251 252 253 251 248 249 252 255 257 259 262 266 270 272 274 277 279 282 285 287 290 292 291 290 290 289 289 289 288 287 285 284 284 283 281 280 279 277 276 275 274 273 271 270 269 268 267 266 265 263 262 261 260 260 259 257 256 253 251 248 246 245 246 246 247 247 246 244 242 242 242 241
255 252 250 248 245 243 243 244 245 244 244 245 245 245 247 250 249 247 248 252 255 257 260 263 267 270 271 273 276 279 282 285 287 291 292 291 291 291 291 292 291 289 287 286 286 285 284 283 282 280 278 277 275 274 273 272 271 270 269 267 266 264 263 263 261 260 259 258 257 256 254 252 249 246 245 245 245 246 246 246 244 242 240 241 240
257 254 250 246 243 242 244 246 245 242 241 242 241 240 243 246 246 246 248 251 254 256 260 264 268 269 270 273 276 279 282 284 288 291 292 291 291 292 293 293 291 289 288 288 287 286 285 283 282 281 279 278 277 276 275 274 273 273 272 270 268 266 265 264 263 261 260 258 257 255 253 251 249 247 245 244 244 245 245 245 244 241 239 240 240
258 254 249 242 236 236 241 243 241 237 236 240 243 242 243 244 243 243 246 249 252 255 259 265 268 268 270 274 277 279 282 285 289 291 291 291 293 293 293 292 290 289 288 288 287 285 285 284 283 282 282 281 281 280 279 277 276 275 274 272 271 269 267 265 264 262 260 258 256 255 253 251 248 246 244 242 242 243 243 243 242 240 237 238 239
255 253 247 234 226 229 233 235 235 232 232 237 243 242 241 243 242 239 241 247 250 254 260 264 267 269 272 275 277 280 283 287 289 290 291 293 293 293 291 291 289 288 287 286 286 286 286 286 286 285 284 284 283 282 280 278 276 275 274 273 272 271 269 267 265 263 261 259 256 254 252 250 248 246 244 241 240 241 240 240 240 237 234 235 237
249 246 238 227 220 220 222 225 230 230 227 231 237 237 240 244 242 236 238 244 249 254 261 264 267 271 274 276 278 281 285 288 289 291 292 293 292 291 290 290 288 287 286 287 288 288 288 288 287 286 285 284 284 282 280 278 277 276 276 274 272 270 268 267 265 262 260 258 256 253 252 250 247 245 243 241 239 239 238 237 236 234 232 233 234
236 234 229 222 216 213 213 220 228 227 224 227 232 236 241 243 238 234 237 243 249 257 263 266 269 272 274 277 280 284 287 289 290 292 292 291 290 290 289 288 287 288 289 290 290 290 289 287 286 285 286 286 285 283 282 281 280 278 275 273 271 269 268 267 265 262 259 256 253 252 251 249 247 244 242 239 238 237 236 234 233 230 229 230 232
232 235 225 213 212 212 216 225 229 228 231 235 236 236 236 232 228 231 238 244 252 261 266 268 270 273 275 279 282 285 288 290 290 291 290 289 289 288 287 287 288 290 291 292 291 290 288 287 286 288 289 289 288 286 285 283 279 275 272 271 271 270 269 268 267 264 260 255 250 248 247 246 244 242 239 236 235 234 232 231 229 227 227 228 230
231 234 219 211 216 219 222 227 229 233 239 240 232 226 223 221 224 232 241 250 258 263 266 268 271 274 277 279 282 285 288 289 289 289 289 288 287 287 288 289 291 293 293 292 291 290 290 290 292 293 293 292 290 287 284 279 274 272 271 272 272 271 270 269 268 266 261 254 248 244 243 241 240 239 237 235 233 231 228 228 227 225 225 226 228
228 226 217 213 217 218 220 225 231 236 237 229 218 216 217 221 228 237 248 258 263 265 268 270 273 275 277 280 283 286 288 289 289 289 289 289 289 289 290 291 294 294 293 292 291 292 293 295 296 296 295 293 289 283 277 274 272 273 274 274 273 271 270 269 266 262 256 250 246 243 241 239 238 236 234 233 231 228 226 225 224 223 223 225 226
219 218 215 214 217 218 219 221 222 224 222 216 213 216 220 228 238 247 256 261 264 267 270 272 273 276 278 282 285 287 288 288 289 290 290 289 290 291 293 295 297 296 293 292 293 296 297 298 298 298 296 293 286 279 275 274 274 274 278 281 279 275 272 268 261 253 249 247 245 242 239 237 235 233 230 229 227 225 223 223 222 221 222 224 224
203 207 209 211 213 213 210 206 205 207 210 215 220 223 227 237 249 255 259 263 265 268 270 271 274 278 282 285 287 287 288 289 290 290 290 290 292 294 297 299 298 296 294 295 298 300 300 301 301 299 294 290 288 285 281 277 275 277 286 292 289 283 277 267 253 243 243 244 241 237 235 233 231 229 227 225 223 222 221 220 220 220 221 222 223
199 196 196 197 197 195 194 196 201 209 217 226 235 235 236 246 256 258 261 264 266 267 269 272 277 282 285 286 288 288 289 290 290 290 290 292 295 298 300 300 298 296 297 300 302 303 303 303 302 298 293 291 291 290 286 281 278 280 290 299 297 289 279 262 243 235 235 238 238 235 232 229 228 227 225 222 220 219 219 219 219 220 220 221 222
202 191 188 192 194 194 197 205 215 226 232 238 246 247 247 254 259 260 261 263 264 267 271 276 281 284 286 288 289 290 290 290 289 290 293 296 299 301 301 300 298 297 300 302 304 305 306 306 303 298 295 295 293 289 287 286 284 285 293 300 298 291 278 257 237 228 227 229 231 230 227 225 224 224 224 222 220 218 217 217 218 219 220 220 221
216 203 197 201 205 206 212 219 227 234 238 243 250 253 254 256 257 258 260 262 265 270 275 280 283 286 288 290 290 289 289 289 291 295 298 300 302 302 302 299 297 298 301 304 306 307 309 310 307 300 298 298 295 292 292 292 290 288 292 299 300 294 281 258 238 227 222 220 221 223 221 219 218 218 219 221 220 219 217 216 217 217 218 219 220
Height
5763 5761 5760 5761 5763 5764 5766 5768 5769 5770 5770 5770 5771 5770 5771 5771 5772 5773 5773 5773 5773 5773 5773 5774 5775 5776 5777 5778 5778 5779 5780 5781 5782 5782 5783 5785 5786 5786 5787 5788 5790 5790 5791 5793 5794 5794 5795 5795 5796 5798 5800 5801 5802 5803 5803 5804 5805 5806 5808 5811 5813 5814 5816 5817 5818 5819 5820 5822 5825 5825 5826 5828 5829 5831 5834 5835 5837 5839 5841 5842 5844 5845 5846 5847 5849
5761 5759 5756 5756 5757 5761 5763 5763 5765 5766 5766 5767 5767 5767 5767 5768 5769 5769 5770 5770 5770 5770 5770 5771 5772 5772 5774 5775 5776 5777 5777 5778 5779 5779 5781 5782 5783 5784 5785 5786 5787 5787 5787 5788 5790 5791 5792 5793 5794 5794 5796 5798 5798 5800 5800 5800 5801 5802 5804 5807 5809 5810 5812 5813 5814 5816 5817 5819 5820 5821 5823 5825 5826 5828 5831 5832 5833 5835 5836 5837 5839 5841 5842 5844 5845
5758 5758 5755 5752 5752 5757 5759 5759 5761 5761 5762 5764 5763 5763 5763 5764 5765 5766 5766 5767 5767 5767 5768 5768 5769 5769 5770 5771 5773 5774 5774 5775 5776 5776 5778 5779 5780 5781 5782 5783 5784 5784 5784 5785 5786 5787 5788 5789 5790 5791 5792 5793 5794 5795 5796 5797 5798 5799 5801 5802 5804 5806 5808 5810 5811 5812 5813 5814 5815 5817 5820 5821 5823 5825 5827 5828 5828 5830 5833 5834 5834 5836 5838 5840 5841
5755 5755 5753 5749 5750 5753 5754 5755 5757 5757 5758 5760 5759 5760 5760 5761 5762 5763 5763 5764 5764 5764 5765 5765 5766 5766 5767 5768 5769 5771 5772 5772 5773 5774 5775 5776 5777 5778 5779 5780 5781 5781 5782 5782 5783 5783 5784 5786 5787 5788 5789 5790 5790 5791 5792 5793 5795 5796 5797 5799 5800 5802 5804 5806 5806 5807 5808 5810 5811 5814 5816 5817 5819 5821 5822 5823 5824 5826 5829 5830 5831 5832 5834 5835 5837
5752 5752 5750 5747 5749 5750 5750 5752 5753 5753 5755 5756 5756 5756 5757 5757 5758 5759 5760 5760 5761 5761 5762 5762 5763 5764 5764 5765 5766 5767 5769 5769 5770 5771 5772 5773 5774 5775 5776 5777 5778 5778 5779 5779 5780 5780 5781 5782 5783 5784 5785 5786 5787 5787 5788 5789 5791 5792 5793 5795 5796 5797 5800 5801 5801 5803 5805 5807 5807 5809 5812 5814 5816 5816 5817 5819 5821 5822 5824 5826 5827 5828 5829 5831 5832
5749 5749 5747 5745 5746 5747 5746 5748 5749 5750 5750 5751 5753 5753 5753 5754 5754 5755 5756 5757 5757 5758 5759 5759 5760 5761 5762 5763 5763 5764 5766 5766 5767 5768 5769 5769 5770 5772 5772 5773 5774 5775 5776 5776 5777 5778 5778 5779 5779 5780 5781 5782 5783 5784 5785 5786 5787 5788 5789 5791 5792 5793 5795 5796 5797 5799 5801 5803 5803 5805 5808 5810 5812 5811 5811 5815 5817 5817 5820 5821 5823 5824 5825 5827 5828
5746 5746 5744 5743 5744 5744 5743 5744 5745 5746 5747 5747 5749 5749 5749 5750 5751 5752 5753 5754 5754 5755 5755 5756 5757 5758 5759 5760 5761 5762 5763 5763 5764 5765 5766 5766 5767 5768 5769 5770 5771 5771 5772 5773 5774 5775 5775 5776 5776 5777 5778 5778 5780 5780 5781 5782 5783 5784 5785 5787 5789 5790 5791 5793 5794 5796 5797 5798 5800 5801 5803 5805 5807 5807 5807 5810 5812 5813 5815 5817 5819 5821 5822 5823 5825
5742 5743 5742 5740 5741 5741 5741 5741 5742 5742 5743 5744 5744 5745 5746 5747 5748 5748 5749 5750 5751 5752 5752 5753 5753 5754 5755 5756 5757 5758 5759 5760 5761 5762 5763 5763 5764 5765 5765 5766 5767 5767 5769 5770 5770 5771 5772 5773 5773 5774 5775 5776 5776 5777 5777 5778 5779 5780 5781 5783 5785 5786 5788 5789 5791 5791 5792 5793 5795 5797 5798 5799 5801 5803 5803 5805 5807 5809 5811 5813 5815 5816 5818 5820 5821
5739 5739 5739 5737 5737 5738 5738 5738 5738 5739 5740 5740 5740 5741 5742 5743 5744 5745 5746 5747 5748 5748 5749 5749 5750 5751 5751 5753 5753 5755 5756 5756 5757 5758 5759 5760 5761 5762 5762 5763 5763 5763 5764 5765 5766 5767 5769 5769 5770 5771 5772 5773 5773 5774 5774 5775 5775 5776 5777 5779 5781 5782 5783 5785 5786 5787 5788 5788 5790 5792 5793 5794 5796 5798 5800 5801 5802 5803 5805 5807 5810 5811 5812 5815 5817
5735 5736 5736 5734 5734 5735 5736 5736 5735 5735 5736 5736 5737 5738 5739 5740 5740 5741 5743 5744 5744 5745 5746 5746 5746 5747 5748 5749 5750 5751 5752 5753 5754 5754 5755 5756 5757 5758 5759 5759 5760 5760 5760 5761 5762 5763 5764 5766 5766 5767 5768 5769 5770 5770 5771 5771 5771 5772 5773 5774 5776 5777 5779 5780 5781 5783 5784 5785 5786 5787 5788 5790 5791 5793 5795 5796 5796 5797 5799 5802 5805 5806 5807 5809 5812
5730 5732 5732 5732 5732 5732 5733 5733 5733 5732 5733 5733 5734 5735 5736 5737 5737 5738 5739 5741 5741 5741 5742 5742 5743 5743 5744 5744 5745 5747 5748 5749 5749 5750 5751 5751 5752 5753 5754 5755 5756 5756 5757 5757 5758 5758 5759 5761 5762 5763 5763 5764 5765 5766 5767 5767 5768 5768 5769 5769 5770 5772 5773 5774 5776 5777 5779 5781 5782 5782 5784 5786 5787 5788 5790 5791 5791 5793 5795 5798 5800 5801 5802 5803 5805
5726 5727 5728 5728 5729 5729 5730 5730 5729 5730 5730 5730 5731 5732 5732 5733 5734 5735 5735 5737 5738 5738 5738 5739 5739 5739 5740 5740 5741 5742 5743 5744 5745 5746 5746 5747 5748 5749 5750 5751 5751 5752 5753 5753 5754 5754 5755 5756 5757 5758 5759 5759 5760 5761 5762 5763 5763 5764 5764 5765 5765 5767 5768 5769 5770 5772 5773 5775 5777 5778 5779 5781 5782 5783 5785 5786 5787 5789 5791 5794 5795 5795 5795 5796 5799
5723 5723 5723 5723 5725 5726 5726 5726 5726 5727 5727 5726 5728 5729 5729 5730 5731 5731 5732 5733 5734 5735 5735 5735 5736 5736 5736 5736 5737 5737 5738 5739 5740 5741 5741 5742 5743 5743 5744 5745 5746 5747 5748 5749 5750 5750 5750 5751 5752 5752 5753 5754 5755 5756 5756 5757 5758 5759 5760 5760 5760 5761 5762 5763 5764 5766 5768 5769 5771 5772 5774 5776 5777 5779 5781 5782 5783 5784 5786 5789 5791 5790 5790 5791 5792
5720 5719 5718 5718 5720 5722 5722 5721 5722 5724 5724 5723 5725 5726 5726 5727 5727 5727 5728 5729 5731 5731 5731 5731 5732 5732 5732 5732 5733 5733 5734 5734 5735 5736 5736 5737 5737 5738 5738 5739 5740 5742 5743 5743 5744 5745 5746 5746 5747 5747 5748 5749 5749 5750 5751 5751 5752 5753 5754 5755 5755 5756 5756 5757 5758 5760 5762 5762 5763 5766 5768 5770 5772 5773 5775 5776 5778 5779 5781 5784 5786 5784 5785 5787 5788
5716 5716 5715 5713 5715 5718 5718 5717 5717 5720 5720 5720 5721 5722 5722 5723 5724 5724 5725 5726 5727 5728 5727 5727 5728 5728 5729 5728 5729 5729 5729 5730 5730 5731 5731 5731 5732 5733 5733 5733 5734 5735 5736 5737 5738 5739 5739 5740 5741 5742 5742 5743 5743 5744 5745 5745 5746 5747 5748 5749 5750 5750 5751 5751 5752 5754 5755 5756 5756 5759 5761 5763 5765 5766 5768 5770 5772 5773 5775 5777 5779 5779 5780 5783 5785
5710 5711 5711 5709 5709 5712 5714 5713 5712 5715 5716 5716 5717 5718 5719 5719 5720 5720 5721 5722 5724 5724 5723 5723 5724 5724 5724 5724 5724 5725 5725 5725 5725 5726 5726 5727 5727 5728 5728 5728 5729 5729 5730 5730 5731 5732 5732 5733 5734 5735 5736 5737 5737 5738 5739 5739 5740 5740 5741 5742 5743 5744 5745 5746 5746 5747 5748 5749 5750 5751 5754 5756 5758 5759 5761 5763 5765 5767 5768 5770 5772 5774 5775 5777 5780
5707 5707 5708 5707 5705 5705 5709 5710 5709 5709 5711 5712 5713 5714 5715 5715 5716 5716 5717 5718 5720 5720 5719 5719 5719 5720 5720 5720 5720 5720 5720 5720 5721 5721 5721 5722 5722 5723 5723 5723 5724 5724 5724 5724 5725 5725 5725 5726 5727 5728 5729 5730 5731 5732 5732 5733 5733 5734 5734 5735 5736 5737 5739 5740 5740 5740 5741 5743 5744 5745 5747 5749 5751 5753 5754 5756 5758 5760 5762 5763 5766 5768 5769 5771 5774
5705 5704 5704 5704 5702 5701 5703 5705 5706 5705 5706 5706 5708 5710 5710 5711 5711 5712 5712 5713 5715 5715 5714 5714 5715 5715 5715 5715 5715 5716 5715 5715 5715 5716 5716 5716 5717 5717 5717 5718 5718 5719 5719 5719 5719 5719 5719 5719 5720 5721 5722 5723 5723 5724 5726 5726 5727 5728 5728 5728 5729 5730 5732 5733 5734 5734 5735 5736 5737 5738 5740 5742 5744 5746 5748 5749 5751 5753 5755 5757 5759 5761 5763 5765 5768
5700 5700 5700 5700 5700 5698 5698 5700 5701 5701 5701 5700 5701 5704 5705 5705 5706 5707 5708 5708 5710 5710 5709 5709 5710 5710 5710 5710 5710 5711 5711 5710 5710 5710 5710 5710 5711 5711 5711 5712 5712 5713 5713 5713 5713 5713 5713 5713 5713 5714 5714 5715 5716 5717 5718 5719 5720 5721 5722 5722 5723 5723 5724 5726 5727 5728 5729 5730 5730 5732 5734 5736 5737 5739 5741 5743 5744 5746 5749 5751 5753 5755 5756 5758 5761
5696 5697 5697 5697 5697 5696 5694 5695 5696 5696 5696 5696 5696 5698 5700 5700 5700 5702 5703 5703 5704 5705 5704 5704 5705 5705 5705 5705 5705 5705 5705 5705 5704 5704 5704 5704 5705 5705 5705 5706 5706 5706 5707 5707 5707 5707 5707 5706 5706 5707 5708 5708 5709 5710 5711 5712 5713 5714 5715 5715 5716 5717 5717 5718 5720 5721 5722 5724 5725 5725 5727 5729 5731 5733 5734 5736 5737 5739 5742 5744 5746 5748 5749 5751 5754
5694 5694 5694 5695 5694 5694 5692 5691 5692 5692 5691 5691 5693 5694 5695 5696 5697 5697 5698 5698 5699 5700 5699 5699 5699 5700 5700 5700 5700 5699 5699 5699 5699 5698 5698 5698 5698 5699 5699 5699 5700 5700 5700 5700 5700 5700 5700 5700 5700 5700 5700 5701 5702 5703 5703 5704 5706 5707 5708 5709 5709 5710 5710 5711 5713 5714 5715 5716 5718 5719 5720 5722 5724 5726 5728 5730 5731 5732 5734 5737 5739 5741 5743 5745 5747
5691 5691 5692 5692 5692 5691 5690 5689 5690 5690 5687 5687 5689 5690 5690 5692 5693 5693 5693 5693 5694 5695 5694 5694 5694 5694 5694 5694 5694 5694 5693 5693 5693 5693 5692 5692 5692 5692 5692 5693 5693 5693 5693 5693 5693 5693 5693 5693 5693 5693 5693 5694 5695 5696 5696 5697 5698 5699 5700 5701 5702 5703 5703 5704 5705 5707 5707 5708 5710 5712 5714 5715 5717 5719 5721 5723 5725 5725 5727 5730 5732 5734 5736 5739 5741
5686 5687 5687 5688 5688 5688 5687 5686 5687 5686 5683 5684 5686 5685 5685 5687 5688 5688 5688 5688 5689 5690 5689 5689 5689 5689 5689 5688 5688 5688 5688 5687 5687 5687 5687 5686 5686 5686 5686 5686 5686 5686 5686 5686 5686 5686 5686 5686 5686 5686 5686 5686 5687 5688 5689 5690 5691 5691 5692 5694 5695 5696 5696 5697 5698 5699 5700 5701 5702 5705 5707 5709 5709 5711 5714 5716 5718 5719 5720 5722 5726 5727 5729 5732 5735
5680 5682 5683 5683 5683 5684 5682 5682 5683 5680 5679 5682 5683 5681 5680 5682 5682 5683 5684 5684 5684 5686 5685 5684 5684 5685 5684 5683 5683 5683 5683 5682 5681 5681 5680 5680 5680 5680 5680 5680 5680 5679 5679 5679 5679 5679 5679 5679 5679 5679 5679 5679 5679 5680 5681 5682 5683 5684 5685 5686 5687 5688 5689 5690 5691 5692 5693 5694 5695 5697 5699 5701 5702 5704 5706 5708 5711 5712 5713 5715 5718 5720 5723 5725 5728
5675 5677 5678 5679 5678 5679 5678 5677 5678 5675 5674 5677 5679 5677 5676 5677 5678 5678 5679 5680 5680 5680 5681 5680 5680 5680 5679 5678 5678 5677 5677 5676 5675 5675 5674 5674 5674 5674 5674 5673 5673 5673 5672 5672 5672 5672 5672 5672 5672 5672 5672 5672 5672 5673 5673 5674 5675 5676 5677 5678 5679 5680 5681 5682 5684 5685 5686 5687 5688 5690 5691 5693 5695 5697 5699 5701 5703 5705 5707 5709 5711 5713 5716 5718 5720
5672 5672 5674 5674 5673 5674 5674 5673 5673 5672 5669 5670 5673 5673 5671 5672 5674 5673 5674 5675 5676 5676 5676 5675 5674 5675 5675 5674 5672 5671 5671 5670 5670 5669 5668 5668 5668 5667 5667 5666 5666 5666 5665 5665 5665 5665 5666 5666 5666 5666 5665 5665 5665 5665 5665 5666 5667 5668 5669 5670 5671 5673 5674 5675 5676 5677 5679 5680 5681 5683 5684 5686 5688 5689 5691 5693 5695 5697 5699 5702 5704 5706 5709 5711 5713
5666 5667 5667 5668 5668 5668 5669 5668 5669 5669 5665 5664 5666 5667 5666 5667 5669 5669 5669 5670 5671 5671 5670 5669 5669 5670 5670 5669 5667 5666 5665 5665 5664 5664 5663 5663 5662 5661 5660 5659 5659 5659 5659 5659 5659 5659 5659 5659 5659 5659 5659 5658 5658 5658 5658 5658 5659 5660 5661 5662 5663 5665 5666 5667 5668 5670 5671 5673 5674 5676 5677 5679 5681 5683 5684 5686 5688 5690 5692 5694 5697 5699 5701 5704 5706
5660 5660 5661 5661 5661 5662 5663 5663 5664 5663 5662 5660 5659 5660 5661 5662 5664 5665 5664 5664 5666 5665 5665 5664 5664 5664 5664 5664 5663 5662 5661 5660 5659 5659 5658 5657 5656 5655 5654 5653 5652 5652 5652 5652 5652 5653 5653 5652 5652 5652 5652 5651 5651 5651 5651 5650 5650 5651 5652 5653 5655 5656 5658 5659 5661 5662 5663 5665 5667 5669 5670 5672 5675 5676 5678 5679 5680 5682 5684 5686 5689 5692 5694 5697 5699
5655 5655 5655 5655 5655 5655 5657 5658 5658 5657 5658 5657 5653 5653 5655 5657 5659 5661 5660 5660 5660 5660 5659 5659 5659 5659 5659 5658 5658 5658 5657 5656 5655 5653 5652 5651 5650 5649 5648 5647 5646 5646 5646 5646 5646 5646 5646 5645 5645 5644 5644 5644 5644 5644 5643 5643 5642 5642 5643 5644 5646 5647 5649 5651 5653 5654 5655 5657 5659 5661 5663 5665 5667 5669 5671 5672 5673 5675 5677 5679 5682 5684 5687 5689 5692
5647 5649 5649 5649 5649 5650 5652 5653 5651 5651 5652 5651 5648 5647 5649 5651 5654 5656 5655 5656 5655 5654 5654 5655 5654 5654 5654 5653 5653 5652 5652 5651 5649 5648 5647 5645 5644 5643 5642 5641 5641 5641 5640 5640 5640 5639 5639 5638 5637 5637 5637 5637 5637 5637 5636 5635 5634 5634 5635 5635 5637 5638 5640 5641 5644 5646 5647 5649 5650 5652 5655 5657 5659 5661 5663 5665 5667 5668 5670 5672 5675 5676 5678 5681 5684
5637 5639 5640 5642 5643 5644 5645 5646 5646 5646 5645 5644 5642 5641 5642 5645 5648 5649 5650 5651 5650 5649 5649 5649 5649 5649 5649 5648 5647 5647 5646 5645 5644 5643 5641 5640 5638 5637 5636 5636 5635 5635 5634 5634 5633 5632 5631 5631 5630 5630 5630 5630 5629 5629 5628 5627 5626 5626 5626 5626 5627 5629 5631 5632 5634 5637 5639 5641 5642 5644 5646 5648 5651 5654 5656 5657 5659 5661 5663 5665 5667 5669 5671 5673 5676
5627 5628 5630 5633 5635 5636 5638 5640 5641 5640 5638 5637 5637 5636 5636 5639 5641 5642 5645 5646 5645 5644 5644 5644 5644 5644 5644 5643 5642 5642 5641 5640 5639 5637 5636 5634 5633 5631 5631 5630 5629 5629 5628 5627 5626 5625 5624 5624 5623 5623 5622 5622 5622 5621 5620 5619 5618 5618 5618 5618 5619 5620 5621 5623 5625 5627 5629 5632 5634 5635 5637 5639 5642 5645 5647 5649 5651 5653 5655 5657 5658 5660 5663 5665 5668
5617 5619 5621 5624 5624 5626 5629 5631 5633 5634 5633 5632 5631 5629 5629 5633 5635 5637 5639 5639 5640 5639 5638 5639 5639 5639 5639 5639 5637 5636 5635 5634 5633 5632 5630 5629 5627 5625 5624 5623 5623 5622 5622 5621 5619 5618 5617 5616 5615 5615 5614 5614 5613 5612 5612 5611 5610 5609 5609 5609 5610 5611 5612 5614 5615 5617 5619 5622 5624 5626 5629 5631 5633 5635 5638 5641 5643 5645 5647 5649 5650 5652 5654 5657 5660
5608 5610 5613 5614 5614 5615 5619 5622 5624 5626 5628 5628 5626 5624 5624 5627 5629 5631 5633 5633 5634 5634 5633 5634 5634 5633 5633 5633 5632 5631 5630 5628 5627 5625 5624 5622 5620 5619 5618 5617 5616 5615 5615 5613 5612 5610 5609 5608 5607 5607 5606 5605 5605 5603 5603 5602 5601 5601 5600 5600 5601 5602 5603 5604 5606 5607 5609 5612 5615 5617 5620 5623 5625 5626 5629 5632 5634 5636 5638 5639 5642 5644 5646 5650 5652
5599 5601 5604 5605 5606 5607 5610 5613 5614 5616 5620 5621 5621 5620 5620 5622 5624 5626 5626 5627 5628 5628 5628 5629 5629 5628 5628 5628 5627 5625 5624 5622 5621 5619 5617 5615 5614 5612 5611 5610 5609 5608 5607 5606 5603 5602 5601 5600 5599 5598 5597 5597 5596 5594 5594 5593 5593 5592 5591 5591 5591 5592 5593 5595 5596 5597 5599 5601 5604 5607 5610 5613 5615 5618 5621 5623 5624 5626 5628 5630 5633 5635 5638 5642 5645
5591 5593 5596 5597 5599 5601 5604 5607 5607 5608 5612 5614 5615 5616 5616 5617 5619 5620 5621 5622 5622 5622 5623 5624 5624 5624 5623 5622 5621 5620 5618 5616 5614 5613 5611 5609 5607 5605 5604 5602 5602 5601 5600 5597 5595 5594 5593 5592 5591 5589 5588 5588 5587 5585 5584 5584 5583 5583 5582 5581 5581 5581 5583 5585 5586 5587 5588 5590 5593 5596 5599 5603 5606 5609 5612 5614 5614 5616 5618 5621 5625 5627 5630 5633 5637
5582 5585 5587 5589 5590 5593 5596 5599 5599 5600 5605 5609 5610 5610 5610 5611 5613 5614 5615 5616 5616 5616 5618 5618 5619 5619 5619 5617 5615 5613 5612 5610 5608 5606 5604 5602 5601 5599 5597 5595 5595 5594 5591 5588 5587 5586 5584 5583 5582 5581 5579 5578 5578 5577 5575 5574 5574 5573 5572 5572 5571 5571 5572 5573 5575 5576 5578 5579 5582 5585 5588 5592 5595 5600 5603 5604 5605 5606 5608 5612 5616 5619 5621 5625 5629
5574 5577 5579 5581 5583 5586 5589 5591 5592 5595 5601 5603 5603 5603 5604 5604 5606 5609 5610 5610 5610 5611 5612 5613 5614 5615 5613 5611 5609 5608 5606 5605 5602 5600 5598 5596 5594 5593 5591 5589 5588 5586 5583 5581 5579 5578 5576 5575 5574 5572 5570 5569 5569 5568 5567 5565 5565 5563 5562 5561 5561 5560 5561 5562 5563 5565 5566 5568 5571 5573 5576 5579 5584 5589 5592 5594 5596 5596 5598 5603 5607 5610 5613 5617 5621
5567 5569 5571 5573 5576 5580 5582 5584 5586 5590 5595 5595 5594 5595 5597 5598 5601 5603 5604 5605 5605 5606 5607 5608 5609 5609 5607 5605 5604 5602 5601 5599 5596 5594 5592 5590 5588 5586 5584 5583 5581 5578 5575 5574 5572 5570 5568 5567 5565 5564 5562 5560 5560 5559 5558 5556 5556 5554 5552 5551 5550 5549 5550 5551 5551 5552 5554 5556 5558 5561 5564 5567 5572 5577 5580 5583 5586 5587 5589 5594 5597 5601 5605 5609 5613
5561 5562 5564 5567 5570 5572 5574 5576 5580 5584 5586 5586 5588 5590 5591 5592 5595 5598 5599 5599 5600 5601 5602 5603 5603 5602 5600 5599 5598 5597 5595 5593 5591 5588 5586 5584 5582 5580 5578 5576 5574 5571 5568 5567 5565 5563 5561 5560 5558 5555 5553 5552 5550 5550 5549 5547 5546 5544 5542 5541 5539 5539 5540 5539 5539 5540 5541 5544 5546 5549 5552 5556 5560 5563 5567 5572 5575 5577 5580 5584 5587 5592 5597 5601 5604
5555 5556 5559 5561 5563 5565 5570 5573 5575 5577 5578 5580 5583 5586 5586 5586 5588 5591 5593 5594 5594 5596 5598 5598 5596 5595 5594 5594 5592 5591 5589 5587 5585 5583 5581 5579 5577 5574 5572 5570 5567 5565 5562 5560 5558 5556 5554 5552 5550 5547 5545 5543 5542 5540 5539 5537 5536 5535 5533 5531 5530 5529 5529 5528 5527 5528 5529 5532 5534 5537 5540 5543 5547 5551 5555 5560 5564 5567 5570 5573 5577 5584 5590 5592 5595
5550 5552 5554 5556 5558 5562 5567 5569 5570 5571 5573 5575 5577 5580 5581 5582 5583 5585 5587 5588 5590 5592 5592 5591 5590 5589 5589 5588 5586 5585 5584 5582 5580 5578 5576 5574 5571 5568 5566 5563 5561 5558 5556 5554 5551 5549 5546 5544 5542 5539 5537 5535 5533 5531 5530 5528 5527 5526 5524 5522 5520 5519 5518 5516 5516 5517 5518 5520 5523 5526 5528 5531 5534 5539 5543 5548 5553 5557 5559 5564 5570 5577 5581 5583 5586
5545 5547 5550 5552 5555 5558 5561 5563 5565 5566 5567 5569 5571 5574 5576 5577 5578 5580 5582 5584 5587 5587 5585 5584 5584 5584 5583 5582 5581 5580 5578 5576 5574 5573 5570 5568 5565 5562 5560 5558 5555 5552 5550 5547 5544 5542 5539 5536 5534 5532 5530 5527 5525 5522 5521 5519 5518 5517 5515 5512 5511 5509 5508 5506 5505 5506 5508 5510 5512 5515 5517 5520 5524 5528 5533 5538 5543 5547 5550 5557 5563 5568 5571 5574 5578
5541 5543 5546 5549 5551 5553 5556 5558 5560 5561 5562 5565 5567 5569 5571 5572 5574 5576 5578 5580 5582 5581 5579 5580 5580 5578 5577 5577 5575 5574 5572 5571 5569 5567 5564 5562 5559 5557 5554 5552 5549 5547 5544 5541 5537 5534 5531 5529 5527 5525 5522 5519 5516 5514 5512 5511 5509 5508 5506 5504 5503 5501 5499 5497 5496 5496 5498 5500 5502 5504 5507 5510 5514 5518 5522 5528 5533 5537 5543 5549 5555 5559 5563 5566 5571
5537 5539 5542 5545 5547 5550 5552 5553 5554 5556 5558 5561 5562 5564 5566 5568 5570 5572 5574 5575 5576 5575 5575 5575 5575 5573 5572 5571 5570 5568 5567 5565 5564 5561 5559 5556 5554 5551 5549 5546 5544 5540 5537 5534 5531 5527 5524 5522 5520 5517 5515 5512 5508 5506 5504 5503 5502 5501 5500 5498 5496 5494 5492 5489 5488 5488 5490 5491 5493 5495 5498 5501 5505 5509 5513 5519 5524 5529 5535 5541 5545 5550 5555 5559 5565
5534 5536 5538 5541 5543 5545 5547 5548 5550 5553 5555 5557 5558 5559 5561 5563 5566 5569 5570 5571 5571 5571 5571 5570 5570 5569 5568 5566 5565 5564 5561 5560 5558 5556 5553 5551 5548 5546 5544 5541 5538 5534 5531 5527 5524 5521 5518 5516 5513 5510 5507 5504 5501 5499 5498 5498 5497 5496 5494 5493 5490 5488 5485 5483 5481 5482 5483 5485 5486 5489 5491 5494 5498 5502 5507 5512 5517 5522 5528 5533 5538 5544 5549 5554 5561
5529 5531 5534 5537 5539 5541 5543 5545 5547 5549 5551 5553 5554 5555 5558 5560 5563 5565 5566 5567 5567 5567 5567 5566 5565 5564 5563 5562 5561 5558 5556 5555 5553 5550 5548 5546 5544 5541 5538 5535 5532 5529 5525 5522 5519 5515 5512 5510 5507 5504 5501 5498 5496 5494 5494 5493 5492 5491 5489 5487 5484 5482 5480 5477 5476 5477 5478 5480 5481 5483 5486 5489 5493 5497 5502 5506 5511 5517 5522 5528 5534 5539 5544 5551 5557
5527 5529 5532 5535 5537 5538 5541 5543 5545 5546 5548 5549 5550 5553 5556 5558 5560 5562 5563 5563 5563 5563 5562 5562 5561 5560 5558 5557 5556 5553 5552 5550 5548 5546 5544 5542 5539 5537 5533 5529 5526 5523 5520 5517 5514 5510 5507 5504 5501 5498 5495 5493 5492 5490 5489 5489 5487 5486 5485 5482 5479 5477 5475 5473 5473 5474 5475 5477 5478 5480 5483 5486 5490 5494 5498 5503 5508 5513 5519 5525 5530 5535 5541 5547 5553
5526 5528 5530 5533 5534 5536 5538 5540 5542 5543 5544 5546 5548 5551 5554 5556 5557 5559 5560 5560 5559 5559 5559 5558 5557 5556 5554 5552 5551 5549 5547 5546 5544 5542 5539 5537 5535 5532 5528 5524 5521 5517 5514 5511 5508 5505 5502 5499 5495 5492 5490 5489 5488 5486 5484 5484 5483 5482 5480 5478 5475 5473 5471 5470 5470 5471 5473 5474 5476 5478 5481 5484 5488 5491 5495 5500 5505 5510 5515 5521 5526 5532 5538 5543 5548
5524 5526 5528 5530 5531 5533 5535 5536 5538 5540 5543 5545 5547 5549 5552 5554 5555 5556 5556 5556 5556 5556 5555 5554 5552 5551 5549 5548 5547 5545 5543 5542 5540 5538 5535 5533 5530 5527 5523 5519 5516 5512 5509 5506 5503 5500 5497 5493 5491 5488 5485 5484 5484 5482 5480 5479 5478 5477 5476 5474 5472 5470 5469 5468 5468 5469 5471 5473 5475 5477 5480 5482 5485 5489 5493 5497 5501 5506 5512 5517 5523 5529 5534 5538 5543
5522 5523 5525 5527 5528 5530 5532 5534 5537 5539 5541 5543 5545 5547 5550 5551 5552 5553 5553 5552 5552 5552 5551 5549 5548 5547 5546 5545 5543 5541 5540 5538 5536 5533 5531 5528 5525 5522 5519 5516 5512 5508 5505 5502 5499 5496 5492 5488 5486 5484 5482 5480 5479 5478 5477 5476 5474 5473 5473 5472 5470 5468 5467 5466 5466 5467 5469 5471 5473 5476 5478 5481 5484 5487 5490 5494 5499 5503 5508 5513 5518 5523 5528 5533 5538